Date String (YYYY-MM-DD hh:mm:ss) UTC,Instrument flags,Ambient pressure (hPa),Sample flow (lpm),Bypass flow (lpm),Sample temperature (°C),Ambient temperature (°C),ASC tube jacket temperature (°C),LED temperature (°C),Box temperature (°C),Sample RH (%),Span deviation,Mass concentration (μg/m³),Mass concentration (μg/m³),Mass concentration (μg/m³)
DateTimeUTC,F1_M11,P_M11,Q1_M11,Q2_M11,T1_M11,T2_M11,T3_M11,T4_M11,T5_M11,U1_M11,ZSPAN_M11,X0_M11,X2_M11,X1_M11
2021-11-22 19:00:00,,0830.2,5.01,0.00,28.1,27.4,00.0,36.9,30.0,07.0,0000.0,0005.82,0002.29,0001.63
2021-11-22 19:01:00,,0830.2,5.00,0.00,28.2,27.5,00.0,36.9,30.0,07.0,0000.0,0005.71,0002.22,0001.57
2021-11-22 19:02:00,,0830.1,4.99,0.00,28.2,27.5,00.0,37.0,30.1,06.9,0000.0,0005.93,0002.17,0001.52
2021-11-22 19:03:00,,0830.1,5.01,0.00,28.2,27.6,00.0,37.0,30.1,06.1,0000.0,0005.96,0002.11,0001.46
2021-11-22 19:04:00,,0830.1,5.00,0.00,28.2,27.6,00.0,37.0,30.1,06.1,0000.0,0005.99,0002.02,0001.40
2021-11-22 19:05:00,,0830.2,4.99,0.00,28.3,27.6,00.0,37.1,30.2,06.2,0000.0,0006.18,0001.96,0001.35
2021-11-22 19:06:00,,0830.1,5.00,0.00,28.3,27.7,00.0,37.1,30.2,06.9,0000.0,0006.82,0001.91,0001.33
2021-11-22 19:07:00,,0830.3,4.99,0.00,28.3,27.7,00.0,37.1,30.2,07.1,0000.0,0008.77,0001.92,0001.32
2021-11-22 19:08:00,,0830.1,5.01,0.00,28.4,27.7,00.0,37.1,30.2,06.6,0000.0,0008.73,0001.93,0001.31
2021-11-22 19:09:00,,0830.1,5.00,0.00,28.4,27.7,00.0,37.2,30.3,06.2,0000.0,0008.52,0001.84,0001.27
2021-11-22 19:10:00,,0830.1,5.00,0.00,28.4,27.7,00.0,37.2,30.3,06.2,0000.0,0008.21,0001.76,0001.23
2021-11-22 19:11:00,,0830.1,5.01,0.00,28.4,27.7,00.0,37.2,30.3,06.3,0000.0,0008.05,0001.68,0001.18
2021-11-22 19:12:00,,0830.1,5.00,0.00,28.4,27.8,00.0,37.2,30.3,06.6,0000.0,0007.99,0001.62,0001.16
2021-11-22 19:13:00,,0830.1,4.99,0.00,28.5,27.8,00.0,37.3,30.3,06.5,0000.0,0007.91,0001.60,0001.14
2021-11-22 19:14:00,,0830.1,5.00,0.00,28.5,27.8,00.0,37.3,30.4,06.6,0000.0,0008.21,0001.61,0001.14
2021-11-22 19:15:00,,0830.1,5.00,0.00,28.5,27.8,00.0,37.3,30.4,06.7,0000.0,0008.38,0001.67,0001.18
2021-11-22 19:16:00,,0830.1,5.01,0.00,28.5,27.8,00.0,37.3,30.4,06.6,0000.0,0008.22,0001.72,0001.21
2021-11-22 19:17:00,,0830.0,4.99,0.00,28.6,27.8,00.0,37.4,30.4,06.6,0000.0,0008.15,0001.76,0001.23
2021-11-22 19:18:00,,0830.0,4.99,0.00,28.6,27.8,00.0,37.4,30.4,06.4,0000.0,0005.41,0001.74,0001.22
2021-11-22 19:19:00,,0829.9,4.99,0.00,28.6,27.9,00.0,37.4,30.4,06.6,0000.0,0004.38,0001.71,0001.21
2021-11-22 19:20:00,,0829.9,5.01,0.00,28.6,27.9,00.0,37.4,30.5,06.6,0000.0,0006.07,0001.75,0001.24
2021-11-22 19:21:00,,0829.9,4.99,0.00,28.6,27.9,00.0,37.5,30.5,06.6,0000.0,0006.57,0001.81,0001.28
2021-11-22 19:22:00,,0829.9,5.00,0.00,28.6,27.9,00.0,37.5,30.5,06.7,0000.0,0006.77,0001.88,0001.32
2021-11-22 19:23:00,,0829.9,5.01,0.00,28.7,27.9,00.0,37.5,30.5,06.6,0000.0,0007.02,0001.94,0001.36
2021-11-22 19:24:00,,0829.8,5.00,0.00,28.7,27.9,00.0,37.5,30.5,06.6,0000.0,0007.01,0001.99,0001.37
2021-11-22 19:25:00,,0829.9,5.00,0.00,28.7,28.0,00.0,37.5,30.5,06.7,0000.0,0007.19,0002.01,0001.39
2021-11-22 19:26:00,,0829.9,4.99,0.00,28.7,28.0,00.0,37.6,30.5,06.7,0000.0,0007.39,0001.97,0001.40
2021-11-22 19:27:00,,0829.9,5.00,0.00,28.7,28.0,00.0,37.6,30.5,06.9,0000.0,0007.46,0002.03,0001.40
2021-11-22 19:28:00,,0829.9,4.99,0.00,28.7,28.0,00.0,37.6,30.6,07.5,0000.0,0007.63,0002.20,0001.46
2021-11-22 19:29:00,,0829.9,5.01,0.00,28.7,28.0,00.0,37.6,30.6,07.9,0000.0,0007.85,0002.36,0001.58
2021-11-22 19:30:00,,0829.9,5.02,0.00,28.7,28.0,00.0,37.6,30.6,07.9,0000.0,0007.91,0002.51,0001.69
2021-11-22 19:31:00,,0829.9,5.02,0.00,28.8,28.0,00.0,37.6,30.6,07.8,0000.0,0007.24,0002.61,0001.78
2021-11-22 19:32:00,,0829.9,4.98,0.00,28.8,28.0,00.0,37.7,30.6,07.8,0000.0,0007.12,0002.74,0001.87
2021-11-22 19:33:00,,0829.9,4.99,0.00,28.8,28.0,00.0,37.7,30.6,07.8,0000.0,0007.35,0002.76,0001.94
2021-11-22 19:34:00,,0829.9,5.01,0.00,28.8,28.1,00.0,37.7,30.6,07.8,0000.0,0008.20,0002.86,0002.01
2021-11-22 19:35:00,,0829.9,4.99,0.00,28.8,28.1,00.0,37.7,30.7,07.9,0000.0,0008.78,0003.00,0002.08
2021-11-22 19:36:00,,0829.9,5.02,0.00,28.8,28.1,00.0,37.7,30.7,07.9,0000.0,0009.42,0003.17,0002.19
2021-11-22 19:37:00,,0829.9,4.99,0.00,28.9,28.1,00.0,37.7,30.7,08.0,0000.0,0008.97,0003.27,0002.29
2021-11-22 19:38:00,,0829.9,5.00,0.00,28.9,28.1,00.0,37.7,30.7,07.9,0000.0,0009.11,0003.34,0002.39
2021-11-22 19:39:00,,0829.8,5.00,0.00,28.9,28.1,00.0,37.8,30.7,07.9,0000.0,0009.63,0003.37,0002.48
2021-11-22 19:40:00,,0829.8,5.00,0.00,28.9,28.1,00.0,37.8,30.7,07.9,0000.0,0011.89,0003.39,0002.51
2021-11-22 19:41:00,,0829.8,5.00,0.00,28.9,28.1,00.0,37.8,30.7,08.0,0000.0,0013.09,0003.41,0002.55
2021-11-22 19:42:00,,0829.9,5.00,0.00,28.9,28.2,00.0,37.8,30.7,07.9,0000.0,0013.42,0003.48,0002.62
2021-11-22 19:43:00,,0829.8,5.00,0.00,28.9,28.2,00.0,37.8,30.7,07.9,0000.0,0013.47,0003.52,0002.70
2021-11-22 19:44:00,,0829.8,4.99,0.00,28.9,28.2,00.0,37.8,30.7,07.9,0000.0,0013.44,0003.59,0002.78
2021-11-22 19:45:00,,0829.8,5.00,0.00,28.9,28.2,00.0,37.9,30.7,08.0,0000.0,0012.80,0003.69,0002.91
2021-11-22 19:46:00,,0829.8,5.01,0.00,28.9,28.2,00.0,37.9,30.7,08.0,0000.0,0012.75,0003.78,0003.05
2021-11-22 19:47:00,,0829.8,5.01,0.00,29.0,28.2,00.0,37.9,30.8,08.0,0000.0,0011.99,0003.80,0003.12
2021-11-22 19:48:00,,0829.8,4.98,0.00,29.0,28.2,00.0,37.9,30.8,07.9,0000.0,0012.09,0003.83,0003.17
2021-11-22 19:49:00,,0829.7,4.99,0.00,29.0,28.3,00.0,37.9,30.8,08.0,0000.0,0012.54,0003.88,0003.22
2021-11-22 19:50:00,,0829.7,5.01,0.00,29.0,28.3,00.0,37.9,30.8,07.9,0000.0,0012.35,0003.93,0003.28
2021-11-22 19:51:00,,0829.7,5.01,0.00,29.0,28.3,00.0,37.9,30.8,08.0,0000.0,0010.27,0003.98,0003.34
2021-11-22 19:52:00,,0829.8,5.00,0.00,29.0,28.3,00.0,37.9,30.9,07.9,0000.0,0009.16,0004.08,0003.43
2021-11-22 19:53:00,,0829.8,5.01,0.00,29.0,28.3,00.0,38.0,30.8,07.9,0000.0,0010.15,0004.16,0003.49
2021-11-22 19:54:00,,0829.8,5.00,0.00,29.1,28.3,00.0,38.0,30.9,07.9,0000.0,0010.86,0004.24,0003.56
2021-11-22 19:55:00,,0829.8,4.99,0.00,29.1,28.3,00.0,38.0,30.9,07.9,0000.0,0011.18,0004.32,0003.62
2021-11-22 19:56:00,,0829.8,5.01,0.00,29.1,28.4,00.0,38.0,30.9,08.0,0000.0,0011.48,0004.37,0003.70
2021-11-22 19:57:00,,0829.8,5.00,0.00,29.1,28.4,00.0,38.0,30.9,08.0,0000.0,0011.72,0004.46,0003.82
2021-11-22 19:58:00,,0829.8,4.99,0.00,29.1,28.4,00.0,38.0,30.9,08.0,0000.0,0012.99,0004.60,0003.96
2021-11-22 19:59:00,,0829.8,4.99,0.00,29.1,28.4,00.0,38.0,30.9,08.1,0000.0,0014.20,0004.79,0004.12
